sat.trackr.live / text

‹ back to catalog

STARLINK-36548

NORAD 67617 · 2026-020A

PAYLOAD ACTIVE UNKNOWN

§ Identity

Operator
Country
US
Launch date
2026-01-30
Launch site
AFETR
Launch vehicle
Mass (kg)
RCS (m²)

Purposes: comms

External: N2YO · Heavens-Above · Gunter

§ Orbital elements

Epoch: 2026-05-25T03:35:15.021024Z

Period
94.27 min
Inclination
43.0003°
Eccentricity
0.0001186
Mean motion
15.27589765 rev/d
Perigee alt
482.2 km
Apogee alt
483.8 km
Semi-major
6,861.2 km
B*
9.6430e-4
RAAN
68.2890°
Arg perigee
267.5878°
Mean anomaly
92.4838°
Rev number
1,780

§ Raw data

STARLINK-365481 67617U 26020A   26145.14947941  .00026376  00000+0  96430-3 0  99922 67617  43.0003  68.2890 0001186 267.5878  92.4838 15.27589765 17806

JSON: /api/v1/satellites/67617 · /tle

For live sub-satellite position, see the globe view (requires WebGL).

§ Visibility from observer

Set your observer location to see the next 7 days of passes ≥ 10°. The values pass through the URL so the page stays shareable.

No JS? Fill the form by hand. The geolocation button needs JavaScript.